Weather reports worldwide

Advertisment
Capo Palinuro, Italy (16310): temperature & dewpoint: 14.06.2018 11:00:00 - 20.06.2018 11:00:00 (CEST)Capo Palinuro, Italy (16310): wind speed: 14.06.2018 11:00:00 - 20.06.2018 11:00:00 (CEST)Capo Palinuro, Italy (16310): wind direction: 14.06.2018 11:00:00 - 20.06.2018 11:00:00 (CEST)Capo Palinuro, Italy (16310): reduced air pressure: 14.06.2018 11:00:00 - 20.06.2018 11:00:00 (CEST)Capo Palinuro, Italy (16310): visibility: 14.06.2018 11:00:00 - 20.06.2018 11:00:00 (CEST)Capo Palinuro, Italy (16310): sunshine duration: 14.06.2018 11:00:00 - 20.06.2018 11:00:00 (CEST)
Date & Time tt [°C] td [°C] ff [km/h] ff [kn] dd ppp [hPa] vv [km] sd [min]
20.06.2018 11:00:00 26,0 19,6 8 4 WNW 1017,1 20 60
20.06.2018 10:00:00 25,0 19,2 15 8 SSE 1017,2 20 60
20.06.2018 09:00:00 24,6 17,6 15 8 NNE 1017,2 20 60
20.06.2018 08:00:00 22,0 18,0 15 8 NNE 1017,0 20 30
20.06.2018 07:00:00 22,0 18,2 11 6 NNE 1016,6 20 -
20.06.2018 06:00:00 21,6 18,0 15 8 NNE 1016,5 15 -
20.06.2018 05:00:00 21,6 18,0 0 0 N 1016,5 15 -
20.06.2018 04:00:00 21,4 17,4 0 0 N 1016,5 15 -
20.06.2018 03:00:00 21,6 17,6 0 0 N 1016,5 15 -
20.06.2018 02:00:00 22,0 18,4 0 0 N 1016,5 15 -
20.06.2018 01:00:00 22,0 18,8 0 0 N 1016,4 15 -
20.06.2018 00:00:00 21,2 17,6 0 0 N 1016,3 15 -
19.06.2018 23:00:00 21,0 17,4 0 0 N 1015,6 15 -
19.06.2018 22:00:00 22,0 18,4 0 0 N 1015,4 15 -
19.06.2018 21:00:00 22,0 18,4 0 0 N 1015,0 15 -
19.06.2018 20:00:00 23,0 19,4 15 8 NNE 1014,9 15 0
19.06.2018 19:00:00 21,6 20,2 18 10 SSE 1015,0 15 -
19.06.2018 18:00:00 21,4 20,0 15 8 SSE 1011,9 15 -
19.06.2018 17:00:00 21,0 19,3 28 15 SSE 1014,5 5 0
19.06.2018 16:00:00 27,0 20,6 8 4 SSE 1014,0 15 24
19.06.2018 15:00:00 27,4 20,2 9 5 NNE 1014,4 15 60
19.06.2018 14:00:00 26,2 22,5 9 5 NW 1014,1 15 60
19.06.2018 13:00:00 27,0 22,8 9 5 WNW 1014,0 15 60
19.06.2018 12:00:00 26,4 20,5 11 6 NE 1014,0 18 60
19.06.2018 11:00:00 23,6 19,5 9 5 NNW 1014,3 15 60
19.06.2018 10:00:00 23,2 19,5 0 0 N 1014,3 15 48
19.06.2018 09:00:00 23,2 19,2 0 0 N 1014,0 15 60
19.06.2018 08:00:00 23,0 19,0 0 0 N 1013,4 15 30
19.06.2018 07:00:00 22,2 18,8 9 5 NW 1013,7 15 60
19.06.2018 06:00:00 22,4 19,2 9 5 NNW 1013,7 15 48
19.06.2018 05:00:00 22,0 18,4 9 5 WNW 1013,4 15 0
19.06.2018 04:00:00 22,0 18,4 11 6 WNW 1013,4 15 -
19.06.2018 03:00:00 22,0 19,4 9 5 NNW 1013,4 15 -
19.06.2018 02:00:00 22,0 20,3 9 5 NW 1013,4 15 -
19.06.2018 01:00:00 22,0 20,3 0 0 N 1013,4 15 -
19.06.2018 00:00:00 22,0 20,3 11 6 WNW 1013,4 15 -
18.06.2018 23:00:00 22,2 20,5 9 5 NW 1013,4 10 -
18.06.2018 22:00:00 22,8 19,4 9 5 WNW 1012,8 15 -
18.06.2018 21:00:00 23,0 19,8 9 5 WNW 1012,7 15 0
18.06.2018 20:00:00 23,2 20,5 9 5 NNW 1012,7 15 0
18.06.2018 19:00:00 23,8 22,1 11 6 NW 1012,7 15 0
18.06.2018 18:00:00 25,0 22,7 9 5 NW 1012,6 15 0
18.06.2018 17:00:00 26,0 21,9 9 5 NW 1012,5 10 0
18.06.2018 16:00:00 26,4 22,9 11 6 WNW 1012,5 12 12
18.06.2018 15:00:00 26,6 22,9 9 5 WNW 1012,9 18 30
18.06.2018 14:00:00 26,6 23,5 0 0 N 1012,9 18 30
18.06.2018 13:00:00 26,4 22,7 11 6 NNE 1012,9 18 48
18.06.2018 12:00:00 26,0 22,5 0 0 N 1012,9 18 60
18.06.2018 11:00:00 25,0 21,9 9 5 NE 1012,7 18 60
18.06.2018 10:00:00 24,0 21,1 13 7 SSE 1012,7 18 30
18.06.2018 09:00:00 22,8 20,1 9 5 NNE 1012,8 18 12
18.06.2018 08:00:00 22,2 19,0 11 6 SW 1012,9 18 0
18.06.2018 07:00:00 21,8 19,2 11 6 NW 1013,0 18 0
18.06.2018 06:00:00 21,8 19,5 11 6 SSW 1012,8 15 -
18.06.2018 05:00:00 21,8 19,5 11 6 ESE 1012,9 15 -
18.06.2018 04:00:00 21,8 19,5 11 6 E 1013,2 15 -
18.06.2018 03:00:00 22,4 20,3 9 5 S 1013,1 15 -
18.06.2018 02:00:00 22,4 20,3 11 6 S 1013,3 15 -
18.06.2018 01:00:00 22,8 20,5 11 6 ENE 1013,4 15 -
18.06.2018 00:00:00 23,2 20,9 9 5 ENE 1013,3 18 -
17.06.2018 23:00:00 23,4 21,1 9 5 ENE 1013,2 18 -
17.06.2018 22:00:00 23,4 21,1 11 6 SSW 1013,0 18 -
17.06.2018 21:00:00 23,6 21,9 11 6 SSW 1013,1 18 -
17.06.2018 20:00:00 23,6 22,0 15 8 ESE 1012,8 18 0
17.06.2018 19:00:00 25,0 22,3 13 7 SW 1012,7 20 12
17.06.2018 18:00:00 25,6 23,3 15 8 SSE 1012,6 20 36
17.06.2018 17:00:00 25,8 22,9 15 8 W 1012,7 20 60
17.06.2018 16:00:00 26,0 23,1 13 7 W 1012,8 20 60
17.06.2018 15:00:00 25,8 21,5 16 9 WSW 1012,8 20 60
17.06.2018 14:00:00 25,4 21,7 11 6 SW 1012,7 20 60
17.06.2018 13:00:00 25,2 21,5 11 6 SSW 1012,5 20 60
17.06.2018 12:00:00 24,2 20,7 15 8 SE 1012,2 20 60
17.06.2018 11:00:00 24,0 20,3 13 7 SSE 1012,2 20 60
17.06.2018 10:00:00 23,8 20,3 8 4 SSE 1012,2 20 60
17.06.2018 09:00:00 21,8 19,5 9 5 SSW 1012,2 20 60
17.06.2018 08:00:00 21,8 19,5 8 4 SSW 1011,9 20 60
17.06.2018 07:00:00 21,2 19,0 8 4 WNW 1011,7 20 12
17.06.2018 06:00:00 20,6 18,5 9 5 N 1011,7 20 0
17.06.2018 05:00:00 20,6 18,5 8 4 NNE 1011,7 20 -
17.06.2018 04:00:00 20,8 19,1 5 3 NNE 1011,7 20 -
17.06.2018 03:00:00 21,0 18,8 9 5 WNW 1011,6 20 -
17.06.2018 02:00:00 21,0 18,8 8 4 NNE 1011,6 20 -
17.06.2018 01:00:00 21,8 19,9 9 5 NNE 1011,3 20 -
17.06.2018 00:00:00 22,0 20,3 9 5 NNE 1011,3 20 -
16.06.2018 23:00:00 22,0 20,3 8 4 NW 1011,4 20 -
16.06.2018 22:00:00 22,4 20,3 9 5 N 1011,1 20 -
16.06.2018 21:00:00 23,0 20,9 8 4 NW 1010,8 20 -
16.06.2018 20:00:00 24,0 20,7 8 4 W 1010,2 20 30
16.06.2018 19:00:00 24,0 20,3 9 5 NW 1009,9 20 0
16.06.2018 18:00:00 24,4 20,3 13 7 WNW 1009,8 20 0
16.06.2018 17:00:00 25,0 20,3 15 8 WNW 1009,8 20 60
16.06.2018 16:00:00 25,0 19,4 13 7 WNW 1009,8 20 60
16.06.2018 15:00:00 24,4 18,8 11 6 W 1009,8 20 60
16.06.2018 14:00:00 24,2 19,1 11 6 WNW 1009,8 20 60
16.06.2018 13:00:00 24,2 17,9 13 7 W 1009,7 20 60
16.06.2018 12:00:00 23,8 19,3 9 5 WSW 1009,5 20 60
16.06.2018 11:00:00 24,0 19,3 8 4 W 1009,3 20 60
16.06.2018 10:00:00 22,2 18,6 8 4 WNW 1009,4 20 60
16.06.2018 09:00:00 21,4 18,2 0 0 N 1009,3 20 60
16.06.2018 08:00:00 20,6 17,4 0 0 N 1009,1 20 60
16.06.2018 07:00:00 20,0 16,4 0 0 N 1009,1 20 18
16.06.2018 06:00:00 20,0 17,2 0 0 N 1009,3 20 -
16.06.2018 05:00:00 20,0 17,2 0 0 N 1009,3 20 -
16.06.2018 04:00:00 20,0 17,6 0 0 N 1009,2 20 -
16.06.2018 03:00:00 20,0 17,6 5 3 WNW 1009,2 20 -
16.06.2018 02:00:00 20,8 17,8 5 3 WNW 1009,2 20 -
16.06.2018 01:00:00 20,8 18,2 8 4 WNW 1009,0 20 -
16.06.2018 00:00:00 20,8 18,0 5 3 NW 1008,9 20 -
15.06.2018 23:00:00 20,8 18,2 0 0 N 1008,9 20 -
15.06.2018 22:00:00 20,8 18,2 0 0 N 1008,3 20 -
15.06.2018 21:00:00 20,8 18,2 0 0 N 1008,3 20 -
15.06.2018 20:00:00 20,8 18,2 0 0 N 1008,1 20 0
15.06.2018 19:00:00 21,8 19,7 8 4 WNW 1007,8 20 0
15.06.2018 18:00:00 22,0 19,2 0 0 N 1007,8 20 0
15.06.2018 17:00:00 21,6 19,9 0 0 N 1007,6 20 0
15.06.2018 16:00:00 24,6 19,7 15 8 SW 1007,3 20 30
15.06.2018 15:00:00 25,0 19,8 8 4 W 1007,2 20 36
15.06.2018 14:00:00 23,4 17,6 8 4 NW 1007,1 20 0
15.06.2018 13:00:00 23,4 18,7 8 4 WNW 1007,1 20 0
15.06.2018 12:00:00 23,0 17,2 5 3 W 1007,0 20 42
15.06.2018 11:00:00 22,4 17,5 5 3 WSW 1007,0 20 42
15.06.2018 10:00:00 20,4 15,6 4 2 N 1007,0 15 60
15.06.2018 09:00:00 19,2 14,9 4 2 N 1006,7 15 0
15.06.2018 08:00:00 19,4 15,5 9 5 ESE 1006,6 15 12
15.06.2018 07:00:00 19,0 15,5 9 5 ESE 1006,7 15 30
15.06.2018 06:00:00 19,0 15,7 11 6 ESE 1006,7 15 0
15.06.2018 05:00:00 19,0 15,9 9 5 E 1006,5 15 -
15.06.2018 04:00:00 19,0 16,4 0 0 N 1006,5 15 -
15.06.2018 03:00:00 19,0 16,6 11 6 E 1006,5 15 -
15.06.2018 02:00:00 19,0 16,6 11 6 SE 1006,5 15 -
15.06.2018 01:00:00 19,0 16,4 9 5 SSE 1006,5 15 -
15.06.2018 00:00:00 19,0 16,4 11 6 SSE 1006,5 15 -
14.06.2018 23:00:00 14,2 11,7 11 6 SSE 1006,8 10 -
14.06.2018 22:00:00 16,0 13,7 0 0 N 1006,7 15 -
14.06.2018 21:00:00 16,4 13,5 15 8 ESE 1006,7 15 -
14.06.2018 20:00:00 20,0 17,4 9 5 SSE 1006,4 15 12
14.06.2018 19:00:00 20,4 17,8 0 0 N 1006,4 15 12
14.06.2018 18:00:00 24,0 19,5 9 5 ESE 1006,1 12 0
14.06.2018 17:00:00 23,6 19,1 11 6 ESE 1006,1 15 12
14.06.2018 16:00:00 23,8 19,7 9 5 ESE 1006,1 15 30
14.06.2018 15:00:00 23,0 19,0 9 5 ESE 1006,2 15 12
14.06.2018 14:00:00 21,6 18,6 11 6 SSE 1006,3 12 60
14.06.2018 13:00:00 19,6 16,8 11 6 SSE 1006,4 12 48
14.06.2018 12:00:00 19,0 16,2 0 0 N 1006,5 12 0
14.06.2018 11:00:00 19,0 17,0 5 3 - 1006,5 10 0

tt = temperature
td = dewpoint
ff = wind speed
dd = wind direction
ppp = reduced air pressure
vv = visibility
sd = sunshine duration

Next stations